www.pogodaiklimat.ru

Погода и климат >> Архив погоды >> Индонезия >> Медан Полония


ПОГОДА в Медан Полония

  • Прогноз погоды в Медан Полония
  • Монитор погоды в Медан Полония

АРХИВ ПОГОДЫ в Медан Полония

Время (UTC), дата Ветер
(напр.,м/с)
 
Видим.   Явления Облачность Т
(С)
Тd
(С)
f
(%)
Тe
(С)
Тes
(С)
Комфортность P
(гПа)
Po
(гПа)
Тmin
(С)
Tmax
(С)
R
(мм)
R24
(мм)
S
(см)
15 17.04 штиль 0 6000 м 8/3 500 м
[Sc Ac As Cs]
+27.8 +26.0 90 +42 +42 опасность
перегрева
1009.8 1008.9
18 17.04 Ю 2 5000 м мгла 8/3 500 м
[Sc Ac As Cs]
+26.8 +25.7 94 +40 +40 очень
душно
1008.9 1008.1
21 17.04 ЮЗ 2 3000 м дымка 8/3 500 м
[Sc Ac As Cs]
+25.8 +25.5 98 +38 +38 очень
душно
1007.7 1006.8
00 18.04 ЮЗ 2 800 м туман 9/3 500 м
[Cu med, cong Ac As Cs]
+26.4 +26.3 99 +40 +40 очень
душно
1009.1 1008.1 +25.1 3
03 18.04 ЮЗ 2 10 км 9/5 500 м
[Cu med, cong As trans Cs]
+32.7 +27.3 73 +51 +55 опасность
перегрева
1010.9 1010.1
06 18.04 С 8 10 км {туман} 8/5 500 м
[Cb cap Ac As Cs]
+34.2 +27.7 69 +54 +56 опасность
перегрева
1009.6 1008.7
09 18.04 С 3 10 км {гроза} 8/4 540 м
[Cu med, cong Ac As Cs]
+31.4 +26.4 75 +48 +51 опасность
перегрева
1006.9 1006.0
12 18.04 ЮЗ 3 7000 м {гроза} 9/3 540 м
[Sc Ac As Cs]
+28.6 +25.7 84 +42 +42 опасность
перегрева
1007.5 1006.7 +34.7
15 18.04 ЮЗ 3 7000 м 9/4 540 м
[Sc Ac As Cs]
+27.4 +24.7 85 +39 +39 очень
душно
1010.0 1009.2
18 18.04 ЮЗ 2 5000 м 9/9 540 м
[]
+26.2 +24.8 92 +37 +37 очень
душно
1009.5 1008.7
21 18.04 ЮЗ 2 5000 м мгла 9/4 540 м
[Sc Ac As Cs]
+25.3 +24.4 95 +35 +35 очень
душно
1007.8 1007.0
00 19.04 Ю 2 6000 м 9/4 500 м
[Sc Ac As Cs]
+25.1 +23.4 90 +34 +34 очень
душно
1008.6 1007.8 +24.8
03 19.04 З 3 7000 м 9/4 500 м
[Sc Ac As Cs]
+30.3 +24.8 72 +43 +47 опасность
перегрева
1010.5 1009.6
06 19.04 СЗ 5 10 км 9/4 500 м
[Cu med, cong Ac As Cs]
+32.2 +25.1 66 +46 +50 опасность
перегрева
1008.4 1007.5
09 19.04 СЗ 7 10 км 9/4 500 м
[Cu med, cong Ac As Cs]
+31.8 +25.1 68 +46 +47 опасность
перегрева
1005.5 1004.6
12 19.04 СЗ 3 6000 м 8/4 540 м
[Sc Ac As Cs]
+29.5 +25.7 80 +44 +44 опасность
перегрева
1006.2 1005.3 +32.6
15 19.04 ЮЗ 1 6000 м 9/4 540 м
[Sc Ac As Cs]
+28.0 +26.9 94 +44 +44 опасность
перегрева
1009.0 1008.1
18 19.04 С 2 10 км дымка 9/4 540 м
[Sc Ac As Cs]
+27.6 +26.9 96 +43 +43 опасность
перегрева
1008.3 1007.4
21 19.04 ЮЗ 1 2200 м дымка 9/4 540 м
[Sc Ac As Cs]
+26.7 +26.6 99 +41 +41 опасность
перегрева
1006.5 1005.7
00 20.04 Ю 1 2000 м дымка 9/4 540 м
[Sc Ac As Cs]
+26.3 +26.2 99 +39 +40 очень
душно
1007.6 1006.6 +25.1
03 20.04 СЗ 4 10 км 10/4 500 м
[Cu med, cong Ac lent Cs]
+31.4 +25.4 71 +46 +49 опасность
перегрева
1009.5 1008.7
06 20.04 С 5 10 км 10/4 500 м
[Cu med, cong Ac lent Cs]
+31.2 +26.8 78 +49 +52 опасность
перегрева
1007.6 1006.8
09 20.04 СЗ 4 10 км 10/4 500 м
[Cu med, cong Ac lent Cs]
+31.3 +25.9 73 +47 +48 опасность
перегрева
1004.6 1003.7
12 20.04 СЗ 2 6000 м 10/4 480 м
[Cb cap Ac lent Cs]
+29.9 +27.0 84 +47 +47 опасность
перегрева
1005.5 1004.6 +32.4
15 20.04 ЮЗ 2 5000 м мгла 9/4 480 м
[Cb cap Ac trans Cs]
+28.6 +26.8 90 +45 +45 опасность
перегрева
1007.8 1006.8
18 20.04 штиль 0 5000 м мгла 8/4 500 м
[Sc Ac trans Cs]
+26.8 +26.1 96 +40 +40 очень
душно
1006.9 1006.0
21 20.04 Ю 2 3000 м дымка 8/4 540 м
[Sc Ac As Cs]
+25.1 +20.4 75 +31 +31 очень
душно
1005.4 1004.6
00 21.04 Ю 2 3000 м дымка 10/1 540 м
[Sc Ac As Cs]
+25.3 +25.2 99 +36 +37 очень
душно
1006.9 1006.0 +24.8
03 21.04 ЮЗ 2 8000 м 9/3 540 м
[Sc Ac As Cs]
+29.6 +24.7 75 +42 +48 опасность
перегрева
1007.8 1006.9
06 21.04 СЗ 3 10 км 9/5 500 м
[Cu Sc Ac As Cs]
+33.1 +24.1 59 +45 +50 опасность
перегрева
1005.6 1004.7
09 21.04 С 5 10 км 8/4 500 м
[Cu med, cong Ac As Cs]
+32.6 +23.8 60 +44 +46 опасность
перегрева
1003.7 1002.8
12 21.04 С 2 9000 м 8/4 540 м
[Cu med, cong Ac As Cs]
+29.7 +25.2 77 +43 +43 опасность
перегрева
1004.7 1003.9 +34.0
15 21.04 Ю 1 6000 м 8/4 500 м
[Sc Ac As Cs]
+27.2 +26.4 95 +41 +41 опасность
перегрева
1006.4 1005.5
18 21.04 ЮЗ 1 3500 м дымка 6/3 540 м
[Sc Ac lent Cs]
+26.7 +25.9 95 +40 +40 очень
душно
1006.0 1005.0
21 21.04 Ю 2 4000 м дымка 8/4 540 м
[Sc Ac trans Cs]
+25.4 +25.1 98 +36 +36 очень
душно
1004.6 1003.8
00 22.04 Ю 2 6000 м 9/4 500 м
[Cu med, cong Ac As Cs]
+25.4 +24.8 96 +36 +36 очень
душно
1005.9 1005.1 +24.6
03 22.04 Ю 2 10 км 9/4 500 м
[Cu med, cong Ac As Cs]
+31.2 +24.1 66 +43 +48 опасность
перегрева
1007.6 1006.8
06 22.04 С 6 10 км 9/4 500 м
[Cu med, cong Ac As Cs]
+31.6 +24.1 65 +44 +47 опасность
перегрева
1006.6 1005.8
09 22.04 СВ 5 10 км 9/4 500 м
[Cu med, cong Ac As Cs]
+32.0 +23.9 62 +43 +45 опасность
перегрева
1004.5 1003.6
12 22.04 штиль 0 10 км 9/4 500 м
[Sc Ac As Cs]
+29.5 +26.9 86 +46 +46 опасность
перегрева
1005.1 1004.3 +32.4
15 22.04 ЮЗ 2 6000 м 9/4 500 м
[Sc Ac As Cs]
+27.2 +25.1 88 +39 +39 очень
душно
1006.5 1005.6
18 22.04 штиль 0 6000 м 9/4 500 м
[Sc Ac As Cs]
+25.2 +23.8 92 +34 +34 очень
душно
1006.3 1005.5
21 22.04 Ю 2 4000 м мгла 9/4 500 м
[Sc Ac As Cs]
+24.8 +23.9 95 +34 +34 очень
душно
1005.6 1004.7
00 23.04 ЮВ 2 5000 м мгла 8/3 500 м
[Sc Ac As Cs]
+24.8 +23.6 93 +34 +34 очень
душно
1007.1 1006.2 +24.0
03 23.04 ЮВ 4 10 км 6/1 600 м
[Sc Ac trans Cs]
+31.8 +23.7 62 +43 +49 опасность
перегрева
1009.2 1008.3
06 23.04 СВ 7 10 км 8/4 540 м
[Cu med, cong Ac trans Cs]
+33.1 +24.5 61 +46 +49 опасность
перегрева
1007.5 1006.5
09 23.04 С 6 10 км 8/3 600 м
[Cu med, cong Ac trans Cs]
+32.7 +23.6 59 +44 +45 опасность
перегрева
1005.1 1004.2
12 23.04 СВ 3 10 км зарница 9/3 500 м
[Cb cap Ac As Cs]
+29.9 +24.1 71 +41 +41 опасность
перегрева
1006.5 1005.6 +33.9
15 23.04 В 2 6000 м 8/4 500 м
[Cb cap Ac As Cs]
+27.7 +26.3 92 +42 +42 опасность
перегрева
1009.2 1008.3
18 23.04 штиль 0 5000 м мгла 8/4 540 м
[Sc Ac As Cs]
+26.6 +25.5 94 +39 +39 очень
душно
1008.6 1008.6
21 23.04 ЮЗ 2 4000 м дымка 8/4 540 м
[Sc Ac As Cs]
+26.1 +25.0 94 +37 +37 очень
душно
1007.1 1006.2
00 24.04 Ю 1 5000 м мгла 9/3 540 м
[Cu med, cong Ac As Cs]
+25.8 +25.4 98 +38 +38 очень
душно
1008.6 1007.6 +24.8
03 24.04 ЮВ 4 9000 м 9/3 500 м
[Sc Ac As Cs]
+31.4 +24.8 68 +45 +48 опасность
перегрева
1010.1 1009.3
06 24.04 С 4 10 км 9/5 500 м
[Sc Ac As Cs]
+34.0 +25.1 60 +48 +53 опасность
перегрева
1007.7 1006.8
09 24.04 СВ 4 10 км 9/5 500 м
[Cu med, cong Ac As Cs]
+32.9 +23.2 57 +43 +45 опасность
перегрева
1005.3 1004.4

 

Местоположение метеостанции Медан Полония (Индонезия): широта 3.57 долгота 98.68 высота над уровнем моря 25 м.

В архиве по умолчанию представлена погода в Медан Полония за последнюю неделю. Архивные данные за месяц целиком и за предыдущие месяцы, начиная с января 2011 года, Вы можете получить, выбрав интересующий диапазон дат из раскрывающегося списка и нажав кнопку "Ввод!".


*Определитесь, кто Вы:
робот инопланетянин человек

Внимание! Время в таблицах - всемирное. Для получения местного времени необходимо прибавить поправку, которая равна 7 ч.

Смотрите также архив погоды в соседних городах и на ближайших метеорологических станциях:

Погода в Белаване (Индонезия) (26 км)
Погода в Сиболге (Индонезия) (226 км)
Погода в Ситаване (Малайзия) (236 км)
Погода в Лхоксёмаве (Индонезия) (247 км)
Погода в Гунунгситоли (Индонезия) (258 км)
Погода в Пенанге (Малайзия) (260 км)
Погода на Авиабазе Баттерворт (Малайзия) (283 км)
Погода в Ипохе (Малайзия) (291 км)
Погода в Меулабохе (Индонезия) (294 км)
Погода на Нагорье Кэмерон (Малайзия) (315 км)

Пояснения к столбцам:

Ветер - указаны скорость ветра в м/с - средняя за 10 мин, порывы в срок и между сроками (в фигурных скобках) и направление, откуда дует ветер: С - северный, СВ - северо-восточный, В - восточный, ЮВ - юго-восточный, Ю - южный, ЮЗ - юго-западный, З - западный, СЗ - северо-западный.
Видимость - горизонтальная дальность видимости в метрах или километрах. При видимости от 1 до 10 км при отсутствии осадков обычно наблюдается дымка, при ухудшении видимости до 1 км и менее - туман. В сухую погоду видимость может ухудшаться дымом, пылью или мглою.
Явления - указаны атмосферные явления, наблюдавшиеся в срок или в последний час перед сроком; фигурными скобками обозначены явления, наблюдавшиеся между сроками (за 1-3 часа до срока); квадратными скобками обозначены град или гололедные отложения с указанием их диаметра в мм.
Облачность - указаны через наклонную черту общая и нижняя облачность в баллах и высота нижней границы облаков в метрах; квадратными скобками обозначены формы облаков: Ci - перистые, Cs - перисто-слоистые, Cc - перисто-кучевые, Ac - высококучевые, As - высокослоистые, Sc - слоисто-кучевые, Ns - слоисто-дождевые, Cu - кучевые, Cb - кучево-дождевые. Подробнее классификацию облаков см. в Атласе облаков (PDF).
T - Температура воздуха - температура, измеренная на высоте 2 м над землей.
Td - Температура точки росы - температура, при понижении до которой содержащийся в воздухе водяной пар достигнет насыщения.
f - Относительная влажность воздуха - влажноcть воздуха, измеренная на высоте 2 м над землей.
Te - Эффективная температура - температура, которую ощущает одетый по сезону человек в тени. Характеристика душности погоды. При расчете учитывается влияние влажности воздуха и скорости ветра на теплоощущения человека.
Tes - Эффективная температура на солнце - температура, которую ощущает человек, с поправкой на солнечный нагрев. Характеристика знойности погоды. Зависит от высоты солнца над горизонтом, облачности и скорости ветра. Ночью, в пасмурную погоду, а также при ветре 12 м/с и более поправка равна нулю.
P - Атмосферное давление - приведенное к уровню моря атмосферное давление.
Po - Атмосферное давление - измеренное на уровне метеостанции атмосферное давление.
Tmin - Минимальная температура - минимум температуры воздуха на высоте 2 м над землей.
Tmax - Максимальная температура - максимум температуры воздуха на высоте 2 м над землей.
R - Количество осадков - Количество выпавших осадков за период времени, мм. При наведении курсора мыши на число - период времени, за который выпало указанное количество осадков.
R24 - Количество осадков - Количество выпавших осадков за 24 часа, мм.
S - Снежный покров - Высота снежного покрова, см. При наведении курсора мыши на число - состояние снежного покрова и степень покрытия местности в баллах.